Location: Cannifist
(18.2333°N, 63.0167°W)
Time: 02:16:21
(UTC+00:00)

Cosmos 1656 - Pass Details

Date: 27 February 2020
Orbit: 797 x 851 km, 71.1° (Epoch: 06 April)

Event Time Altitude Azimuth Distance (km) Brightness Sun altitude
Rises 23:14:32 0° 180° (S) 3,293 6.8 -14.3°
Reaches altitude 10° 23:17:03 10° 172° (S) 2,369 6.0 -14.9°
Maximum altitude 23:22:05 40° 104° (ESE) 1,167 4.0 -16.1°
Enters shadow 23:26:06 16° 40° (NE) 2,028 5.3 -17.1°
